TimeEDT,TemperatureF,Dew PointF,Humidity,Sea Level PressureIn,VisibilityMPH,Wind Direction,Wind SpeedMPH,Gust SpeedMPH,PrecipitationIn,Events,Conditions,WindDirDegrees,DateUTC
1:00 AM,80.6,71.6,74,29.96,6.2,ENE,3.5,-,N/A,,Scattered Clouds,60,2013-10-06 05:00:00
2:00 AM,80,76,84,29.96,8,Calm,Calm,,,,Partly Cloudy,,2013-10-06 06:00:00
2:00 AM,78.8,75.2,89,29.95,6.2,Calm,Calm,-,N/A,,Scattered Clouds,0,2013-10-06 06:00:00
5:00 AM,77,74,89,29.91,8,Calm,Calm,,,,Partly Cloudy,,2013-10-06 09:00:00
5:00 AM,77.0,75.2,94,29.91,6.2,Calm,Calm,-,N/A,,Scattered Clouds,0,2013-10-06 09:00:00
6:00 AM,78.8,71.6,78,29.93,6.2,Calm,Calm,-,N/A,,Scattered Clouds,0,2013-10-06 10:00:00
8:00 AM,79,75,85,29.94,9,Calm,Calm,,,,Scattered Clouds,,2013-10-06 12:00:00
8:00 AM,78.8,75.2,89,29.93,6.2,Calm,Calm,-,N/A,,Partly Cloudy,0,2013-10-06 12:00:00
9:00 AM,86.0,73.4,66,29.95,6.2,Variable,1.2,-,N/A,,Scattered Clouds,0,2013-10-06 13:00:00
10:00 AM,84.2,71.6,66,29.96,6.2,Variable,1.2,-,N/A,,Scattered Clouds,0,2013-10-06 14:00:00
11:00 AM,88,78,64,29.96,9,NE,2.3,,,,Partly Cloudy,40,2013-10-06 15:00:00
11:00 AM,87.8,77.0,70,29.96,6.2,Variable,2.3,-,N/A,,Scattered Clouds,0,2013-10-06 15:00:00
1:00 PM,84.2,71.6,66,29.94,6.2,NNW,4.6,-,N/A,,Scattered Clouds,340,2013-10-06 17:00:00
2:00 PM,81,78,88,29.93,8,NNW,4.6,,,Rain,Light Rain Showers,330,2013-10-06 18:00:00
2:00 PM,80.6,78.8,94,29.92,6.2,NNW,4.6,-,N/A,Rain,Light Rain Showers,330,2013-10-06 18:00:00
3:00 PM,84.2,71.6,66,29.93,6.2,North,4.6,-,N/A,,Mostly Cloudy,360,2013-10-06 19:00:00
4:00 PM,86.0,71.6,62,29.91,6.2,North,5.8,-,N/A,,Mostly Cloudy,360,2013-10-06 20:00:00
5:00 PM,82,75,73,29.90,8,SSE,5.8,,,Rain,Light Rain Showers,150,2013-10-06 21:00:00
5:00 PM,82.4,75.2,79,29.89,6.2,SSE,5.8,-,N/A,Rain,Light Rain Showers,150,2013-10-06 21:00:00
6:00 PM,82.4,71.6,70,29.92,6.2,ESE,3.5,-,N/A,,Mostly Cloudy,120,2013-10-06 22:00:00
7:00 PM,82.4,73.4,74,29.91,6.2,Variable,2.3,-,N/A,,Scattered Clouds,0,2013-10-06 23:00:00
8:00 PM,81,76,79,29.93,8,East,5.8,,,,Partly Cloudy,90,2013-10-07 00:00:00
8:00 PM,80.6,77.0,89,29.93,6.2,East,5.8,-,N/A,,Scattered Clouds,90,2013-10-07 00:00:00
9:00 PM,80.6,71.6,74,29.95,6.2,SW,3.5,-,N/A,,Scattered Clouds,230,2013-10-07 01:00:00
10:00 PM,78.8,71.6,78,29.96,6.2,Variable,2.3,-,N/A,,Scattered Clouds,0,2013-10-07 02:00:00
11:00 PM,79,75,83,29.96,8,East,3.5,,,,Partly Cloudy,90,2013-10-07 03:00:00
11:00 PM,78.8,75.2,89,29.96,6.2,East,3.5,-,N/A,,Scattered Clouds,90,2013-10-07 03:00:00